| time (UTC) | temp F | wind direction | speed MPH | gust MPH | rain 1hr in | rain 24hr in | rain mn in | humidity % | barometer mb |
| 20260904174005 | 92 | 176 | 1.0 | 3.0 | 0.00 | 1.13 | 0.00 | 72 | 1013.2 |
| 20260904173005 | 90 | 101 | 1.0 | 3.0 | 0.00 | 1.13 | 0.00 | 74 | 1013.3 |
| 20260904172005 | 89 | 161 | 0.0 | 2.0 | 0.00 | 1.13 | 0.00 | 77 | 1013.5 |
| 20260904171005 | 89 | 169 | 0.0 | 2.0 | 0.00 | 1.13 | 0.00 | 74 | 1013.7 |
| 20260904170005 | 90 | 112 | 0.0 | 1.0 | 0.00 | 1.13 | 0.00 | 76 | 1014.0 |
| 20260904165005 | 91 | 208 | 1.0 | 4.0 | 0.00 | 1.13 | 0.00 | 72 | 1014.0 |
| 20260904164005 | 90 | 299 | 1.0 | 3.0 | 0.00 | 1.13 | 0.00 | 76 | 1014.3 |
| 20260904163005 | 91 | 237 | 1.0 | 3.0 | 0.00 | 1.13 | 0.00 | 73 | 1014.2 |
| 20260904162005 | 88 | 90 | 1.0 | 3.0 | 0.00 | 1.13 | 0.00 | 79 | 1014.5 |
| 20260904161005 | 89 | 77 | 0.0 | 2.0 | 0.00 | 1.13 | 0.00 | 80 | 1014.4 |
| 20260904160005 | 89 | 77 | 1.0 | 4.0 | 0.00 | 1.13 | 0.00 | 79 | 1014.4 |
| 20260904155005 | 90 | 164 | 1.0 | 3.0 | 0.00 | 1.13 | 0.00 | 78 | 1014.4 |
| 20260904154005 | 89 | 88 | 1.0 | 3.0 | 0.00 | 1.13 | 0.00 | 80 | 1014.5 |
| 20260904153005 | 87 | 121 | 1.0 | 3.0 | 0.00 | 1.16 | 0.00 | 84 | 1014.5 |
| 20260904152005 | 88 | 138 | 1.0 | 3.0 | 0.00 | 1.20 | 0.00 | 82 | 1014.5 |
| 20260904151005 | 86 | 184 | 1.0 | 3.0 | 0.00 | 1.23 | 0.00 | 85 | 1014.4 |
| 20260904150005 | 85 | 114 | 0.0 | 2.0 | 0.00 | 1.39 | 0.00 | 86 | 1014.5 |
| 20260904145005 | 85 | 61 | 0.0 | 2.0 | 0.00 | 1.41 | 0.00 | 88 | 1014.6 |
| 20260904144005 | 84 | 103 | 0.0 | 2.0 | 0.00 | 1.48 | 0.00 | 88 | 1014.3 |
| 20260904142005 | 86 | 102 | 1.0 | 3.0 | 0.00 | 1.52 | 0.00 | 86 | 1014.2 |
| 20260904141005 | 85 | 123 | 1.0 | 2.0 | 0.00 | 1.52 | 0.00 | 86 | 1014.0 |
| 20260904140005 | 83 | 224 | 0.0 | 2.0 | 0.00 | 1.52 | 0.00 | 89 | 1014.1 |
| 20260904135005 | 83 | 207 | 0.0 | 2.0 | 0.00 | 1.52 | 0.00 | 90 | 1014.2 |
| 20260904134005 | 82 | 80 | 0.0 | 1.0 | 0.00 | 1.52 | 0.00 | 91 | 1014.0 |
| 20260904133005 | 82 | 150 | 0.0 | 1.0 | 0.00 | 1.52 | 0.00 | 92 | 1014.0 |
| 20260904132005 | 81 | 136 | 0.0 | 1.0 | 0.00 | 1.52 | 0.00 | 93 | 1013.6 |
| 20260904131005 | 80 | 164 | 0.0 | 1.0 | 0.00 | 1.58 | 0.00 | 96 | 1013.9 |
| 20260904130005 | 79 | 209 | 0.0 | 2.0 | 0.00 | 1.58 | 0.00 | 97 | 1013.9 |
| 20260904125005 | 79 | 162 | 0.0 | 1.0 | 0.00 | 1.58 | 0.00 | 99 | 1013.8 |
| 20260904124005 | 78 | 151 | 0.0 | 2.0 | 0.00 | 1.58 | 0.00 | 99 | 1013.8 |
| 20260904123005 | 78 | 120 | 0.0 | 1.0 | 0.00 | 1.58 | 0.00 | 99 | 1014.0 |
| 20260904122005 | 78 | 105 | 0.0 | 1.0 | 0.00 | 1.58 | 0.00 | 99 | 1013.8 |
| 20260904121005 | 78 | 102 | 0.0 | 1.0 | 0.00 | 1.58 | 0.00 | 99 | 1013.8 |
| 20260904120005 | 78 | 0 | 0.0 | 0.0 | 0.00 | 1.58 | 0.00 | 99 | 1013.6 |
| 20260904115005 | 77 | 0 | 0.0 | 0.0 | 0.00 | 1.58 | 0.00 | 99 | 1013.6 |
| 20260904114005 | 77 | 0 | 0.0 | 0.0 | 0.00 | 1.58 | 0.00 | 99 | 1013.6 |
| 20260904113005 | 77 | 0 | 0.0 | 0.0 | 0.00 | 1.59 | 0.00 | 99 | 1013.1 |
| 20260904112215 | 77 | 0 | 0.0 | 0.0 | 0.00 | 1.59 | 0.00 | 99 | 1013.3 |
| 20260904111216 | 77 | 0 | 0.0 | 0.0 | 0.00 | 1.59 | 0.00 | 99 | 1013.2 |
| 20260904110217 | 77 | 0 | 0.0 | 0.0 | 0.00 | 1.59 | 0.00 | 99 | 1013.3 |
| 20260904105005 | 76 | 0 | 0.0 | 0.0 | 0.00 | 1.59 | 0.00 | 99 | 1013.0 |
| 20260904104005 | 77 | 0 | 0.0 | 0.0 | 0.00 | 1.59 | 0.00 | 99 | 1013.1 |
| 20260904103005 | 77 | 0 | 0.0 | 0.0 | 0.00 | 1.59 | 0.00 | 99 | 1013.0 |
| 20260904102005 | 77 | 0 | 0.0 | 0.0 | 0.00 | 1.59 | 0.00 | 99 | 1012.8 |
| 20260904101005 | 77 | 0 | 0.0 | 0.0 | 0.00 | 1.59 | 0.00 | 99 | 1013.0 |
| 20260904100005 | 77 | 0 | 0.0 | 0.0 | 0.00 | 1.59 | 0.00 | 99 | 1012.5 |
| 20260904095005 | 77 | 0 | 0.0 | 0.0 | 0.00 | 1.59 | 0.00 | 99 | 1012.4 |
| 20260904094005 | 77 | 0 | 0.0 | 0.0 | 0.00 | 1.59 | 0.00 | 99 | 1012.7 |
| 20260904093005 | 77 | 0 | 0.0 | 0.0 | 0.00 | 1.59 | 0.00 | 99 | 1012.7 |
| 20260904092005 | 77 | 0 | 0.0 | 0.0 | 0.00 | 1.59 | 0.00 | 99 | 1012.7 |
| 20260904091005 | 77 | 0 | 0.0 | 0.0 | 0.00 | 1.59 | 0.00 | 99 | 1012.8 |
| 20260904090218 | 77 | 0 | 0.0 | 0.0 | 0.00 | 1.59 | 0.00 | 99 | 1012.7 |
| 20260904085005 | 77 | 0 | 0.0 | 0.0 | 0.00 | 1.59 | 0.00 | 99 | 1012.6 |
| 20260904084005 | 77 | 0 | 0.0 | 0.0 | 0.00 | 1.59 | 0.00 | 99 | 1012.6 |
| 20260904083005 | 77 | 0 | 0.0 | 0.0 | 0.00 | 1.59 | 0.00 | 99 | 1012.4 |
| 20260904082005 | 77 | 0 | 0.0 | 0.0 | 0.00 | 1.59 | 0.00 | 99 | 1012.5 |
| 20260904081005 | 77 | 0 | 0.0 | 0.0 | 0.00 | 1.59 | 0.00 | 99 | 1012.5 |
| 20260904080005 | 77 | 0 | 0.0 | 0.0 | 0.00 | 1.59 | 0.00 | 99 | 1012.6 |
| 20260904075005 | 77 | 0 | 0.0 | 0.0 | 0.00 | 1.59 | 0.00 | 99 | 1012.5 |
| 20260904074005 | 77 | 0 | 0.0 | 0.0 | 0.00 | 1.59 | 0.00 | 99 | 1012.6 |
| 20260904073005 | 76 | 0 | 0.0 | 0.0 | 0.00 | 1.59 | 0.00 | 99 | 1012.3 |
| 20260904072218 | 76 | 0 | 0.0 | 0.0 | 0.00 | 1.59 | 0.00 | 99 | 1012.4 |
| 20260904071004 | 77 | 0 | 0.0 | 0.0 | 0.00 | 1.59 | 0.00 | 99 | 1012.3 |
| 20260904070005 | 76 | 0 | 0.0 | 0.0 | 0.00 | 1.59 | 0.00 | 99 | 1012.5 |
| 20260904065004 | 77 | 0 | 0.0 | 0.0 | 0.00 | 1.59 | 0.00 | 99 | 1012.6 |
| 20260904064005 | 77 | 0 | 0.0 | 0.0 | 0.00 | 1.59 | 0.00 | 98 | 1012.5 |
| 20260904063005 | 77 | 0 | 0.0 | 0.0 | 0.00 | 1.59 | 0.00 | 98 | 1012.6 |
| 20260904062218 | 77 | 0 | 0.0 | 0.0 | 0.00 | 1.59 | 0.00 | 98 | 1012.7 |
| 20260904061004 | 77 | 0 | 0.0 | 0.0 | 0.00 | 1.59 | 0.00 | 98 | 1012.7 |
| 20260904060005 | 77 | 72 | 0.0 | 1.0 | 0.00 | 1.59 | 0.00 | 98 | 1012.8 |
| 20260904055216 | 77 | 0 | 0.0 | 0.0 | 0.00 | 1.59 | 0.00 | 98 | 1013.0 |
| 20260904054005 | 77 | 69 | 0.0 | 1.0 | 0.00 | 1.59 | 0.00 | 98 | 1013.3 |
| 20260904053004 | 77 | 0 | 0.0 | 0.0 | 0.00 | 1.59 | 0.00 | 98 | 1013.3 |
| 20260904052004 | 77 | 0 | 0.0 | 0.0 | 0.00 | 1.59 | 0.00 | 98 | 1013.4 |
| 20260904051004 | 77 | 0 | 0.0 | 0.0 | 0.00 | 1.59 | 0.00 | 98 | 1013.4 |
| 20260904050005 | 77 | 0 | 0.0 | 0.0 | 0.00 | 1.59 | 0.00 | 98 | 1013.4 |
| 20260904045005 | 77 | 0 | 0.0 | 0.0 | 0.00 | 1.59 | 0.00 | 98 | 1013.5 |
| 20260904044005 | 78 | 0 | 0.0 | 0.0 | 0.00 | 1.59 | 0.00 | 97 | 1013.4 |
| 20260904043005 | 78 | 0 | 0.0 | 0.0 | 0.00 | 1.59 | 0.00 | 97 | 1013.6 |
| 20260904042005 | 78 | 79 | 0.0 | 1.0 | 0.00 | 1.59 | 0.00 | 97 | 1013.8 |
| 20260904041005 | 78 | 82 | 0.0 | 2.0 | 0.00 | 1.59 | 0.00 | 97 | 1013.6 |
| 20260904040027 | 78 | 67 | 0.0 | 1.0 | 0.00 | 1.59 | 0.00 | 97 | 1013.4 |
| 20260904035005 | 78 | 65 | 0.0 | 2.0 | 0.00 | 1.59 | 1.59 | 97 | 1013.6 |
| 20260904034218 | 78 | 66 | 0.0 | 1.0 | 0.00 | 1.59 | 1.59 | 97 | 1013.5 |
| 20260904033214 | 78 | 0 | 0.0 | 0.0 | 0.00 | 1.59 | 1.59 | 97 | 1013.6 |
| 20260904032215 | 78 | 64 | 0.0 | 2.0 | 0.00 | 1.59 | 1.59 | 97 | 1013.7 |
| 20260904031005 | 78 | 61 | 0.0 | 1.0 | 0.00 | 1.59 | 1.59 | 96 | 1013.4 |
| 20260904030005 | 78 | 87 | 0.0 | 1.0 | 0.00 | 1.59 | 1.59 | 96 | 1013.5 |
| 20260904025004 | 78 | 85 | 0.0 | 1.0 | 0.00 | 1.59 | 1.59 | 96 | 1013.3 |
| 20260904024219 | 78 | 76 | 0.0 | 3.0 | 0.00 | 1.59 | 1.59 | 96 | 1013.4 |
| 20260904023005 | 78 | 77 | 1.0 | 3.0 | 0.00 | 1.59 | 1.59 | 95 | 1013.3 |
| 20260904022005 | 79 | 71 | 0.0 | 2.0 | 0.00 | 1.59 | 1.59 | 95 | 1013.0 |
| 20260904021005 | 79 | 73 | 1.0 | 2.0 | 0.00 | 1.59 | 1.59 | 95 | 1013.1 |
| 20260904020005 | 79 | 74 | 1.0 | 3.0 | 0.00 | 1.59 | 1.59 | 95 | 1013.0 |
| 20260904015005 | 79 | 85 | 0.0 | 3.0 | 0.00 | 1.59 | 1.59 | 95 | 1013.4 |
| 20260904014215 | 79 | 77 | 1.0 | 3.0 | 0.00 | 1.59 | 1.59 | 95 | 1012.9 |
| 20260904013005 | 79 | 74 | 1.0 | 3.0 | 0.00 | 1.59 | 1.59 | 95 | 1013.1 |
| 20260904012216 | 79 | 74 | 1.0 | 4.0 | 0.00 | 1.59 | 1.59 | 95 | 1013.1 |
| 20260904011004 | 79 | 76 | 0.0 | 3.0 | 0.00 | 1.59 | 1.59 | 95 | 1012.9 |
| 20260904010218 | 79 | 79 | 1.0 | 4.0 | 0.00 | 1.59 | 1.59 | 95 | 1012.8 |
| 20260904005005 | 79 | 75 | 1.0 | 3.0 | 0.00 | 1.59 | 1.59 | 95 | 1012.9 |
| 20260904004004 | 80 | 73 | 1.0 | 4.0 | 0.00 | 1.59 | 1.59 | 94 | 1012.8 |
| 20260904003005 | 80 | 75 | 1.0 | 3.0 | 0.00 | 1.59 | 1.59 | 94 | 1013.0 |
| 20260904002005 | 80 | 88 | 1.0 | 6.0 | 0.00 | 1.59 | 1.59 | 94 | 1012.9 |
| 20260904001005 | 80 | 74 | 0.0 | 2.0 | 0.00 | 1.59 | 1.59 | 94 | 1012.7 |
| 20260904000005 | 81 | 73 | 1.0 | 6.0 | 0.00 | 1.59 | 1.59 | 93 | 1012.7 |
| 20260903235005 | 81 | 82 | 0.0 | 2.0 | 0.00 | 1.59 | 1.59 | 94 | 1012.4 |
| 20260903234004 | 81 | 79 | 1.0 | 2.0 | 0.00 | 1.59 | 1.59 | 94 | 1012.2 |
| 20260903233005 | 81 | 70 | 1.0 | 4.0 | 0.00 | 1.59 | 1.59 | 93 | 1012.3 |
| 20260903232005 | 82 | 68 | 1.0 | 2.0 | 0.00 | 1.59 | 1.59 | 93 | 1012.0 |
| 20260903231005 | 82 | 81 | 1.0 | 3.0 | 0.00 | 1.59 | 1.59 | 92 | 1012.0 |
| 20260903230005 | 82 | 79 | 1.0 | 3.0 | 0.00 | 1.59 | 1.59 | 91 | 1012.0 |
| 20260903225005 | 83 | 70 | 1.0 | 4.0 | 0.00 | 1.59 | 1.59 | 90 | 1012.4 |
| 20260903224005 | 83 | 70 | 1.0 | 6.0 | 0.00 | 1.59 | 1.59 | 89 | 1012.3 |
| 20260903223218 | 83 | 68 | 1.0 | 4.0 | 0.00 | 1.59 | 1.59 | 89 | 1012.4 |
| 20260903222005 | 85 | 203 | 1.0 | 3.0 | 0.00 | 1.59 | 1.59 | 87 | 1012.0 |
| 20260903221214 | 87 | 261 | 0.0 | 1.0 | 0.00 | 1.59 | 1.59 | 83 | 1012.0 |
| 20260903220005 | 86 | 220 | 1.0 | 2.0 | 0.00 | 1.59 | 1.59 | 84 | 1012.0 |
| 20260903215216 | 85 | 143 | 0.0 | 2.0 | 0.00 | 1.59 | 1.59 | 87 | 1011.8 |
| 20260903214004 | 83 | 156 | 0.0 | 2.0 | 0.00 | 1.59 | 1.59 | 93 | 1011.7 |
| 20260903213005 | 83 | 85 | 0.0 | 1.0 | 0.00 | 1.59 | 1.59 | 93 | 1011.6 |
| 20260903212005 | 83 | 86 | 0.0 | 1.0 | 0.00 | 1.59 | 1.59 | 91 | 1011.3 |
| 20260903211005 | 83 | 85 | 0.0 | 1.0 | 0.00 | 1.59 | 1.59 | 91 | 1011.5 |
| 20260903210005 | 83 | 98 | 1.0 | 1.0 | 0.00 | 1.59 | 1.59 | 91 | 1011.3 |
| 20260903205005 | 83 | 98 | 1.0 | 1.0 | 0.00 | 1.59 | 1.59 | 91 | 1011.7 |
| 20260903204005 | 83 | 79 | 1.0 | 2.0 | 0.00 | 1.59 | 1.59 | 91 | 1011.7 |
| 20260903203214 | 81 | 24 | 1.0 | 2.0 | 0.00 | 1.59 | 1.59 | 93 | 1011.8 |
| 20260903202005 | 80 | 72 | 0.0 | 2.0 | 0.00 | 1.59 | 1.59 | 97 | 1012.1 |
| 20260903201004 | 79 | 83 | 1.0 | 2.0 | 0.00 | 1.61 | 1.59 | 97 | 1012.4 |
| 20260903200217 | 80 | 11 | 1.0 | 2.0 | 0.00 | 1.62 | 1.59 | 98 | 1012.4 |
| 20260903195005 | 79 | 333 | 2.0 | 4.0 | 0.00 | 1.62 | 1.59 | 98 | 1012.5 |
| 20260903194005 | 79 | 30 | 1.0 | 3.0 | 0.01 | 1.62 | 1.59 | 99 | 1012.4 |
| 20260903193005 | 79 | 358 | 0.0 | 2.0 | 0.13 | 1.89 | 1.59 | 99 | 1012.7 |
| 20260903192005 | 78 | 357 | 1.0 | 3.0 | 0.55 | 2.00 | 1.59 | 99 | 1012.7 |
| 20260903191005 | 77 | 352 | 0.0 | 2.0 | 1.13 | 2.00 | 1.59 | 99 | 1012.9 |
| 20260903190217 | 77 | 344 | 0.0 | 3.0 | 1.13 | 2.00 | 1.59 | 99 | 1012.9 |
| 20260903185005 | 77 | 356 | 1.0 | 2.0 | 1.13 | 2.00 | 1.59 | 99 | 1012.9 |
| 20260903184005 | 77 | 327 | 1.0 | 3.0 | 1.12 | 1.99 | 1.58 | 98 | 1013.0 |
| 20260903183006 | 76 | 73 | 1.0 | 3.0 | 1.00 | 1.87 | 1.46 | 97 | 1013.5 |
| 20260903182004 | 77 | 126 | 1.0 | 4.0 | 0.58 | 1.45 | 1.04 | 97 | 1013.7 |
| 20260903181005 | 81 | 67 | 1.0 | 4.0 | 0.00 | 0.87 | 0.46 | 94 | 1013.7 |
| 20260903180005 | 82 | 344 | 1.0 | 2.0 | 0.00 | 0.87 | 0.46 | 93 | 1013.1 |
| 20260903175004 | 83 | 358 | 0.0 | 2.0 | 0.00 | 0.87 | 0.46 | 91 | 1013.6 |